Lid_Strength_Index
4 4 4 4 4 5 5 5 5 5 5 5 5 5 5 5 4 4 4 4 3 3 2 2 2 2 6 10 10 4 0 2 4 5 4 6 8 10 12 11 10 11 11 10 9 9 10
4 4 4 4 4 5 5 5 5 5 5 5 5 5 5 5 4 4 4 3 3 3 2 2 2 3 8 14 6 4 4 4 4 7 6 6 8 8 11 11 11 10 10 9 9 11 11
4 4 4 4 4 5 5 5 5 5 5 5 5 5 5 5 4 4 4 3 3 3 2 2 2 4 9 11 5 4 5 6 4 5 8 6 5 8 9 11 9 9 12 10 10 10 11
4 4 4 4 4 5 5 5 5 5 5 4 5 5 5 5 4 4 3 3 3 2 2 3 3 6 11 6 5 5 5 5 4 4 5 5 5 7 9 8 8 11 13 15 12 10 10
4 4 4 4 4 4 5 5 5 5 5 5 4 5 5 4 4 4 3 3 3 2 2 3 6 9 12 4 5 3 4 5 5 4 4 4 5 8 7 11 13 12 16 15 13 11 11
3 4 4 4 4 4 4 5 5 5 5 5 5 5 4 4 4 4 4 3 3 3 3 3 5 9 9 7 3 2 3 3 5 5 5 5 7 10 11 13 18 16 15 15 13 13 12
3 3 3 3 4 4 4 4 5 5 5 5 5 5 4 4 4 4 5 8 10 10 8 10 9 8 7 4 2 3 2 4 4 6 10 7 11 13 12 11 11 11 12 14 13 11 12
3 3 3 3 3 4 4 4 5 5 5 5 5 5 4 4 4 4 5 8 7 6 10 8 8 8 6 5 6 4 2 7 8 11 9 11 14 10 9 9 11 12 13 13 12 10 13
3 3 3 3 3 3 4 4 5 5 5 5 5 5 4 4 4 6 8 6 4 5 12 9 7 7 7 5 7 7 5 6 9 10 11 13 11 8 10 11 12 12 13 13 13 11 12
2 2 3 3 3 3 3 4 5 5 5 5 5 5 4 4 6 7 7 5 4 6 14 11 8 6 5 4 8 4 4 6 9 11 10 11 8 10 11 11 11 14 10 10 11 13 16
2 2 2 3 3 4 4 4 5 5 5 5 5 5 4 5 9 8 6 5 5 8 21 10 8 4 4 7 7 7 3 6 10 10 10 12 11 11 12 11 9 12 8 10 11 13 15
2 2 2 3 3 3 4 5 5 5 5 5 5 5 5 6 8 7 5 6 7 15 20 12 8 8 9 8 8 7 7 5 6 10 10 10 8 9 10 8 8 8 10 11 12 14 17
2 2 2 3 3 3 4 5 5 5 5 5 5 5 6 6 8 6 5 7 15 17 9 12 11 9 10 11 10 9 10 11 12 15 15 11 11 8 8 10 8 10 13 18 18 18 19
2 2 2 3 3 3 5 5 5 6 6 6 6 6 6 6 7 6 6 11 17 13 12 9 10 10 12 10 11 10 11 13 10 11 14 16 16 10 8 10 12 11 12 18 21 21 18
2 3 2 2 3 4 4 5 5 6 6 6 6 8 7 6 5 6 9 15 15 12 10 11 11 13 12 11 11 11 12 12 10 10 14 15 15 9 8 8 9 12 14 11 16 16 17
3 3 2 2 3 3 4 5 5 5 6 6 10 9 7 5 5 7 11 12 12 8 8 9 14 12 15 13 13 13 12 10 10 8 9 11 16 9 9 8 8 10 9 15 15 20 21
3 3 2 3 3 3 4 6 6 6 6 6 10 10 6 6 6 9 14 13 10 7 7 10 12 13 12 13 12 13 12 10 8 9 8 10 13 12 10 11 13 13 13 13 14 16 20
3 3 3 3 3 4 5 6 6 6 7 8 12 13 7 7 12 13 13 11 7 8 7 9 9 10 12 11 12 13 13 10 7 8 11 9 12 15 13 10 9 10 12 12 17 18 16
3 3 3 3 3 4 5 6 6 6 7 9 13 12 7 8 16 15 12 10 8 9 9 10 10 9 9 11 14 11 11 8 7 9 10 10 13 16 15 13 10 12 11 11 12 14 17
4 4 3 3 3 5 5 5 6 6 6 9 13 15 12 12 12 14 14 12 11 8 8 8 9 8 10 11 10 12 12 9 8 8 7 8 12 13 16 14 11 13 11 11 12 17 16
4 4 4 3 4 5 5 5 6 6 6 10 13 14 13 16 14 13 13 12 12 12 9 8 10 10 11 13 12 12 10 10 8 8 9 10 14 13 11 11 10 11 11 11 12 12 15
3 4 4 3 4 5 5 6 6 6 7 10 12 13 12 14 12 13 13 13 12 11 11 10 11 10 10 12 12 13 11 10 11 9 10 10 14 13 13 11 11 12 11 10 11 12 13
3 3 3 4 4 5 5 6 6 6 8 12 11 11 12 13 13 14 14 12 11 11 10 9 9 10 11 10 9 9 9 9 9 10 12 12 13 15 16 13 12 15 12 11 11 11 12
3 3 4 5 4 5 5 5 6 6 7 11 12 12 13 15 13 13 11 10 11 10 12 9 8 10 8 6 7 8 9 9 9 9 9 12 13 14 17 14 19 12 10 9 11 10 11
3 4 5 5 4 4 5 5 6 6 6 10 11 12 11 13 12 11 11 11 10 10 11 10 9 8 7 7 11 13 13 13 11 10 10 9 12 15 18 18 14 13 11 11 12 13 10
4 5 5 5 4 4 5 5 5 5 5 10 11 11 9 11 14 10 11 10 11 13 11 10 8 8 7 9 12 16 18 14 14 13 9 10 10 14 16 19 20 13 10 8 9 16 9
4 5 5 5 4 4 5 5 5 5 5 7 11 10 11 12 11 10 11 10 8 9 11 12 11 11 8 11 14 15 16 12 16 16 16 14 14 16 16 17 15 10 8 7 14 13 9
5 6 5 5 4 4 5 5 5 5 5 7 9 10 10 10 10 9 7 9 10 10 12 11 11 9 11 12 13 13 14 13 14 13 14 15 16 16 15 17 18 8 9 13 10 8 8
5 6 6 6 5 5 5 5 5 4 5 6 9 8 8 10 11 9 7 6 7 7 9 9 10 9 10 11 11 11 13 12 13 16 10 15 12 14 13 14 9 8 9 7 7 8 7